This is the latest recevied weather packets stored in our database for station/object W0VI. If no packets are shown the sender has not sent any weather packets the latest 10 day(s).
| Time | Temp. | Humidity | Pressure | Rain* | Wind** | Luminosity | Snow |
|---|---|---|---|---|---|---|---|
| 1777510442 | 10° C | 46% | 1016.5 hPa | 0 mm | - | 12 W/m² | - |
| 1777510137 | 10.56° C | 46% | 1016.3 hPa | 0 mm | - | 16 W/m² | - |
| 1777509835 | 10.56° C | 45% | 1016.3 hPa | 0 mm | - | 21 W/m² | - |
| 1777509530 | 10.56° C | 45% | 1016.3 hPa | 0 mm | - | 25 W/m² | - |
| 1777509228 | 11.11° C | 44% | 1016.3 hPa | 0 mm | - | 29 W/m² | - |
| 1777508925 | 11.11° C | 45% | 1016.5 hPa | 0 mm | - | 32 W/m² | - |
| 1777508621 | 11.11° C | 44% | 1016.3 hPa | 0 mm | - | 38 W/m² | - |
| 1777508319 | 11.11° C | 45% | 1016.3 hPa | 0 mm | - | 42 W/m² | - |
| 1777508016 | 11.11° C | 45% | 1016.3 hPa | 0 mm | - | 44 W/m² | - |
| 1777507712 | 11.11° C | 45% | 1016.2 hPa | 0 mm | - | 53 W/m² | - |
| 1777507409 | 11.11° C | 46% | 1016.3 hPa | 0 mm | - | 65 W/m² | - |
| 1777507106 | 11.11° C | 46% | 1016.1 hPa | 0 mm | - | 69 W/m² | - |
| 1777506804 | 11.11° C | 45% | 1016.2 hPa | 0 mm | - | 75 W/m² | - |
| 1777506501 | 11.11° C | 46% | 1016.3 hPa | 0 mm | - | 115 W/m² | - |
| 1777506196 | 11.11° C | 44% | 1016.2 hPa | 0 mm | - | 78 W/m² | - |
| 1777505893 | 10.56° C | 46% | 1016.3 hPa | 0 mm | - | 70 W/m² | - |
| 1777505589 | 11.11° C | 45% | 1016.3 hPa | 0 mm | - | 56 W/m² | - |
| 1777505285 | 12.22° C | 43% | 1016.3 hPa | 0 mm | - | 82 W/m² | - |
| 1777504982 | 12.22° C | 43% | 1016.5 hPa | 0 mm | - | 104 W/m² | - |
| 1777504679 | 11.67° C | 44% | 1016.5 hPa | 0 mm | - | 140 W/m² | - |
| 1777504377 | 11.67° C | 43% | 1016.1 hPa | 0 mm | - | 248 W/m² | - |
| 1777504076 | 11.67° C | 43% | 1016.6 hPa | 0 mm | - | 221 W/m² | - |
| 1777503772 | 11.67° C | 43% | 1016.5 hPa | 0 mm | - | 232 W/m² | - |
| 1777503469 | 11.67° C | 44% | 1016.5 hPa | 0 mm | - | 90 W/m² | - |
| 1777503164 | 11.11° C | 44% | 1016.5 hPa | 0 mm | - | 125 W/m² | - |
* Rain latest hour (hover to see other rain measurements)
** Current wind speed in m/s (hover to see current wind gust speed)